Home   Weather   USA   Gladewater   Past weeks
Flag for USA

Past Weather in Gladewater, Texas, USA — Yesterday and Last 2 Weeks

Currently: 78 °F. Scattered clouds. (Weather station: Fox Stephens Field - Gilmer Municipal Airport, USA). See more current weather

Past Weather in Gladewater — Graph

°F

Gladewater Temperature Yesterday

Maximum temperature yesterday: 90 °F (at 4:35 pm)
Minimum temperature yesterday: 73 °F (at 6:35 am)
Average temperature yesterday: 80 °F

High & Low Weather Summary for the Past Weeks

 TemperatureHumidityPressure
High91 °F (May 18, 4:15 pm)95% (May 6, 12:15 am)30.18 "Hg (May 6, 12:15 am)
Low57 °F (May 6, 4:55 am)33% (May 12, 3:15 pm)29.63 "Hg (May 19, 7:15 pm)
Average77 °F69%29.90 "Hg
* Reported May 5 9:15 am — May 20 9:15 am, Gladewater. Weather by CustomWeather, © 2022

Note: Actual official high and low records may vary slightly from our data, if they occured in-between our weather recording intervals... More about our weather records

Gladewater Weather History for the Previous 24 Hours

Scroll right to see more
 ConditionsComfort  
Time TempWeatherWind HumidityBarometerVisibility
9:15 am
Fri, May 20
78 °FScattered clouds.10 mph70%29.69 "Hg10 mi
8:35 am76 °FScattered clouds.15 mph73%29.69 "Hg10 mi
7:35 am75 °FPartly sunny.10 mph76%29.69 "Hg10 mi
7:15 am74 °FBroken clouds.12 mph77%29.68 "Hg10 mi
6:55 am74 °FMore clouds than sun.12 mph78%29.67 "Hg10 mi
6:35 am74 °FMostly cloudy.8 mph79%29.66 "Hg10 mi
6:15 am73 °FOvercast.13 mph81%29.65 "Hg10 mi
5:55 am73 °FPassing clouds.9 mph81%29.65 "Hg10 mi
5:35 am73 °FPassing clouds.8 mph81%29.64 "Hg10 mi
5:15 am73 °FPassing clouds.8 mph80%29.63 "Hg10 mi
4:55 am74 °FPassing clouds.10 mph79%29.63 "Hg10 mi
4:35 am74 °FPassing clouds.9 mph78%29.63 "Hg10 mi
4:15 am74 °FPassing clouds.12 mph76%29.63 "Hg10 mi
3:35 am74 °FPassing clouds.17 mph76%29.63 "Hg10 mi
2:55 am74 °FPassing clouds.21 mph76%29.64 "Hg10 mi
2:35 am74 °FPassing clouds.14 mph74%29.65 "Hg10 mi
2:15 am75 °FPassing clouds.14 mph73%29.65 "Hg10 mi
1:35 am76 °FClear.10 mph70%29.66 "Hg10 mi
1:15 am76 °FClear.13 mph68%29.66 "Hg10 mi
12:55 am76 °FClear.12 mph66%29.67 "Hg10 mi
12:15 am77 °FClear.12 mph63%29.67 "Hg10 mi
11:55 pm
Thu, May 19
78 °FClear.16 mph60%29.67 "Hg10 mi
11:35 pm78 °FClear.13 mph58%29.67 "Hg10 mi
11:15 pm79 °FClear.13 mph58%29.67 "Hg10 mi
10:55 pm79 °FClear.13 mph59%29.66 "Hg10 mi
10:35 pm80 °FClear.10 mph58%29.66 "Hg10 mi
10:15 pm81 °FClear.10 mph58%29.65 "Hg10 mi
9:35 pm82 °FClear.10 mph57%29.65 "Hg10 mi
9:15 pm82 °FClear.10 mph56%29.64 "Hg10 mi
8:35 pm83 °FClear.8 mph54%29.64 "Hg10 mi
8:15 pm83 °FClear.5 mph53%29.64 "Hg10 mi
7:55 pm84 °FSunny.5 mph50%29.63 "Hg10 mi
7:15 pm87 °FSunny.8 mph43%29.63 "Hg10 mi
6:35 pm88 °FSunny.15 mph39%29.64 "Hg10 mi
6:15 pm89 °FSunny.12 mph39%29.64 "Hg10 mi
5:55 pm89 °FSunny.14 mph38%29.65 "Hg10 mi
5:15 pm90 °FSunny.14 mph37%29.66 "Hg10 mi
4:55 pm90 °FSunny.14 mph37%29.67 "Hg10 mi
4:35 pm90 °FSunny.8 mph37%29.68 "Hg10 mi
4:15 pm90 °FSunny.8 mph40%29.69 "Hg10 mi
3:55 pm90 °FSunny.13 mph38%29.69 "Hg10 mi
3:35 pm89 °FSunny.17 mph36%29.70 "Hg10 mi
2:55 pm89 °FSunny.10 mph41%29.72 "Hg10 mi
2:35 pm88 °FSunny.15 mph41%29.73 "Hg10 mi
1:55 pm87 °FSunny.14 mph44%29.75 "Hg10 mi
1:35 pm87 °FSunny.13 mph45%29.75 "Hg10 mi
1:15 pm86 °FSunny.12 mph45%29.76 "Hg10 mi
12:35 pm85 °FSunny.13 mph48%29.79 "Hg10 mi
12:15 pm84 °FSunny.16 mph49%29.80 "Hg10 mi
11:55 am83 °FSunny.14 mph53%29.80 "Hg10 mi
11:15 am82 °FSunny.21 mph55%29.79 "Hg10 mi
10:55 am81 °FSunny.20 mph56%29.80 "Hg10 mi
10:35 am81 °FSunny.17 mph59%29.82 "Hg10 mi
10:15 am79 °FSunny.14 mph64%29.83 "Hg10 mi
Weather by CustomWeather, © 2022

See weather overview